Regional Weather Roundup
Issued by NWS

Home | Current Version | Previous Version | Graphics & Text | Print | Product List | Glossary On
Versions: 1 2 3 4 5 6 7 8 9 10 11 12 13 14 15 16 17 18 19 20 21 22 23 24 25 26 27 28 29 30 31 32 33 34 35 36 37 38 39 40 41 42 43 44 45 46 47 48 49 50
000
ASUS43 KLOT 270710
RWRIL

ILLINOIS REGIONAL WEATHER ROUNDUP
NATIONAL WEATHER SERVICE CHICAGO/ROMEOVILLE IL
100 AM CST FRI FEB 27 2015

NOTE: "FAIR" INDICATES FEW OR NO CLOUDS BELOW 12,000 FEET WITH NO
SIGNIFICANT WEATHER AND/OR OBSTRUCTIONS TO VISIBILITY.

* THESE STATIONS ARE NOT UNDER NWS QUALITY CONTROL. THEY ALSO MAY NOT
  REPORT WEATHER SUCH AS PRECIPITATION OR FOG.

ILZ001-002-007-009-015-016-024-270800-
NORTHWEST ILLINOIS

CITY           SKY/WX    TMP DP  RH WIND       PRES   REMARKS
MOLINE         CLEAR     -6 -12  75 W6        30.52R WCI -19
STERLING*      CLEAR     -4  -9  77 W3        30.48R
SAVANNA*       CLEAR     -8 -13  78 NW3       30.50R
$$

ILZ003-004-008-010-011-017-018-270800-
NORTH CENTRAL ILLINOIS

CITY           SKY/WX    TMP DP  RH WIND       PRES   REMARKS
ROCKFORD       CLEAR    -10 -16  74 CALM      30.47R
FREEPORT*      CLEAR     -8 -14  76 CALM      30.48R
ROCHELLE*      CLEAR    -13 -17  82 CALM      30.46S
DE KALB*       CLEAR     -6 -12  74 NW7       30.44R WCI -20
PERU*          CLEAR     -1  -7  76 NW10      30.48S WCI -18
$$

ILZ005-006-012>014-019>023-270800-
NORTHEAST ILLINOIS

CITY           SKY/WX    TMP DP  RH WIND       PRES   REMARKS
CHICAGO-OHARE  CLEAR      2  -8  63 NW8       30.43R WCI -12
CHICAGO-MIDWAY PTCLDY     7  -4  60 NW6       30.44R WCI  -3
AURORA         CLEAR     -7 -14  71 NW5       30.45R WCI -18
LANSING*       PTCLDY     1  -6  74 W3        30.43S
JOLIET*        CLEAR      0  -8  70 CALM      30.46S
WAUKEGAN       CLEAR     -6  -9  86 W5        30.43R WCI -17
DUPAGE AIRPORT CLEAR     -2 -10  69 CALM      30.43R
KANKAKEE*      CLEAR     -5 -10  81 W7        30.45S WCI -19
WHEELING       CLEAR      2  -7  66 NW6       30.45S WCI  -9
MORRIS*        CLEAR     -8 -12  82 NW7       30.46S WCI -23
ROMEOVILLE*    CLEAR      0  -8  71 NW7       30.45R WCI -13
NORTHERLY ISL    N/A     12  -1  56 NW13        N/A  WCI  -3
$$

LMZ740>746-270800-
SOUTHERN LAKE MICHIGAN

STATION/POSITION SKY/WX   TEMP    WIND        PRES    VSBY  WAVE
                          AIR SEA DIR/SP/G                  HT/PER
                          (F)     (DEG/KT/KT) (MB)    (MI)  (FT/S)
WAUKEGAN HARBOR             5     290/  8/ 11   N/A
HARRISON CRIB              11     310/ 14/ 17   N/A
BURNHAM HARBOR             11     340/ 10/ 12   N/A
CALUMET HARBOR              9     280/  7/ 10 1028.8S
MICHIGAN CITY              11      40/  6/  6   N/A
$$

ILZ025>027-034>036-040-047-049-050-058-095>099-270800-
WEST-CENTRAL ILLINOIS

CITY           SKY/WX    TMP DP  RH WIND       PRES   REMARKS
QUINCY         CLEAR     -3 -10  72 NW7       30.55R WCI -16
GALESBURG*     PTCLDY    -9 -13  82 W9        30.50S WCI -26
MACOMB*        CLEAR     -8 -13  80 NW8       30.55R WCI -24
JACKSONVILLE*  CLEAR     -4 -10  75 W7        30.54R WCI -18
PITTSFIELD*    CLEAR      2  -6  70 NW6       30.56R WCI  -9
$$

ILZ028>032-037-038-041>044-048-051>054-059>061-270800-
CENTRAL ILLINOIS

CITY           SKY/WX    TMP DP  RH WIND       PRES   REMARKS
PONTIAC        CLEAR     -1  -6  80 NW6       30.48R WCI -13
BLOOMINGTON    CLEAR      4  -3  72 NW9       30.47R WCI -10
DECATUR        PTCLDY     6  -1  73 NW10      30.49R WCI  -9
PEORIA         CLEAR      1  -8  66 NW3       30.51R
LACON*         CLEAR     -2  -9  74 W6        30.50S WCI -14
LINCOLN*       CLEAR      4  -4  72 W6        30.54R WCI  -7
SPRINGFIELD    CLEAR      2  -6  69 NW9       30.53R WCI -13
TAYLORVILLE    CLEAR      5  -4  66 NW10      30.51R WCI -10
$$

ILZ033-039-045-046-055>057-062-063-270800-
EAST-CENTRAL ILLINOIS

CITY           SKY/WX    TMP DP  RH WIND       PRES   REMARKS
CHAMPAIGN      CLOUDY     9   1  70 NW9       30.45R WCI  -4
DANVILLE*      CLOUDY     8   0  68 NW9       30.42R WCI  -5
RANTOUL*       CLOUDY     8   0  68 NW6       30.45R WCI  -2
MATTOON        CLOUDY    11   4  73 NW9       30.46R WCI  -2
PARIS*         CLOUDY     9   3  76 CALM      30.47R
$$

ILZ079-100>102-270800-
SOUTHWEST ILLINOIS

CITY           SKY/WX    TMP DP  RH WIND       PRES   REMARKS
ALTON          PTCLDY     6  -5  61 NW6       30.56R WCI  -5
BELLEVILLE     CLEAR      9   0  66 NW9       30.54R WCI  -5
CAHOKIA*       CLEAR     10  -1  61 N9        30.56R WCI  -3
SPARTA*        CLEAR     10   2  68 N9        30.55R WCI  -3
$$

ILZ064>066-069>071-074>076-080>082-084>086-088>090-092>094-270800-
SOUTH-CENTRAL ILLINOIS

CITY           SKY/WX    TMP DP  RH WIND       PRES   REMARKS
CARBONDALE     FLURRIES  15   5  64 NW12      30.52R WCI   2
CAIRO*         CLEAR     20  13  72 N10       30.49R WCI   9
EFFINGHAM*     LGT SNOW  13   6  74 NW9       30.51R WCI   0
MARION         FLURRIES  18   9  68 NW8       30.51R WCI   7
MT. VERNON     CLOUDY    12   5  73 CALM      30.50R
CENTRALIA*     FLURRIES  12   5  73 NW10      30.51R WCI  -2
SALEM*         LGT SNOW  13   7  77 NW9       30.51R WCI   1
METROPOLIS*    CLEAR     19  13  77 N8        30.47R WCI   9
$$

ILZ067-068-072-073-078-083-087-091-270800-
SOUTHEAST ILLINOIS

CITY           SKY/WX    TMP DP  RH WIND       PRES   REMARKS
LAWRENCEVILLE  CLOUDY    13   6  74 NW10      30.48R WCI   0
FLORA*         FLURRIES  14   9  81 N6        30.50R WCI   5
FAIRFIELD*     LGT SNOW  16  12  84 NW6       30.49R WCI   7
HARRISBURG*    LGT SNOW  18  14  83 NW8       30.50R WCI   8
ROBINSON*      CLOUDY     7   2  81 NW7       30.49R WCI  -5
CARMI*         FLURRIES  21  18  86 NW10      30.47R WCI  10
$$

ABBREVIATIONS USED IN REMARKS
   TC - TEMPERATURE IN CELSIUS
  WCI - WIND CHILL INDEX
   HX - HEAT INDEX
  VSB - VISIBILITY
$$




USA.gov is the U.S. government's official web portal to all federal, state and local government web resources and services.